owner,sensor,date,latitude,longitude,air_temperature,qcFlag 
LUMCON,ioos:station:LUMCON:103:1,2011-02-01T00:00:00Z,30.1889,-90.1683,11.6,1111122 
LUMCON,ioos:station:LUMCON:103:1,2011-02-01T01:00:00Z,30.1889,-90.1683,11.4,1111122 
LUMCON,ioos:station:LUMCON:103:1,2011-02-01T02:00:00Z,30.1889,-90.1683,11.3,1111122 
LUMCON,ioos:station:LUMCON:103:1,2011-02-01T03:00:00Z,30.1889,-90.1683,11.0,1111122 
LUMCON,ioos:station:LUMCON:103:1,2011-02-01T04:00:00Z,30.1889,-90.1683,10.9,1111122 
LUMCON,ioos:station:LUMCON:103:1,2011-02-01T05:00:00Z,30.1889,-90.1683,11.1,1111122 
LUMCON,ioos:station:LUMCON:103:1,2011-02-01T06:00:00Z,30.1889,-90.1683,11.2,1111122 
LUMCON,ioos:station:LUMCON:103:1,2011-02-01T07:00:00Z,30.1889,-90.1683,11.3,1111122 
LUMCON,ioos:station:LUMCON:103:1,2011-02-01T08:00:00Z,30.1889,-90.1683,11.5,1111122 
LUMCON,ioos:station:LUMCON:103:1,2011-02-01T09:00:00Z,30.1889,-90.1683,11.7,1111122 
LUMCON,ioos:station:LUMCON:103:1,2011-02-01T10:00:00Z,30.1889,-90.1683,12.1,1111122 
LUMCON,ioos:station:LUMCON:103:1,2011-02-01T11:00:00Z,30.1889,-90.1683,12.6,1111122 
LUMCON,ioos:station:LUMCON:103:1,2011-02-01T12:00:00Z,30.1889,-90.1683,12.7,1111122 
LUMCON,ioos:station:LUMCON:103:1,2011-02-01T13:00:00Z,30.1889,-90.1683,12.8,1111122 
LUMCON,ioos:station:LUMCON:103:1,2011-02-01T14:00:00Z,30.1889,-90.1683,12.8,1111122 
LUMCON,ioos:station:LUMCON:103:1,2011-02-01T21:00:00Z,30.1889,-90.1683,13.8,1111122 
LUMCON,ioos:station:LUMCON:103:1,2011-02-01T22:00:00Z,30.1889,-90.1683,13.3,1111122 
LUMCON,ioos:station:LUMCON:103:1,2011-02-01T23:00:00Z,30.1889,-90.1683,12.1,1111122 
LUMCON,ioos:station:LUMCON:103:1,2011-02-02T00:00:00Z,30.1889,-90.1683,10.9,1111122 
LUMCON,ioos:station:LUMCON:103:1,2011-02-02T01:00:00Z,30.1889,-90.1683,10.2,1111122 
LUMCON,ioos:station:LUMCON:103:1,2011-02-02T02:00:00Z,30.1889,-90.1683,9.2,1111122 
LUMCON,ioos:station:LUMCON:103:1,2011-02-02T03:00:00Z,30.1889,-90.1683,8.4,1111122 
LUMCON,ioos:station:LUMCON:103:1,2011-02-02T04:00:00Z,30.1889,-90.1683,7.3,1111122 
LUMCON,ioos:station:LUMCON:103:1,2011-02-02T05:00:00Z,30.1889,-90.1683,5.6,1111122 
LUMCON,ioos:station:LUMCON:103:1,2011-02-02T06:00:00Z,30.1889,-90.1683,3.7,1111122 
LUMCON,ioos:station:LUMCON:103:1,2011-02-02T07:00:00Z,30.1889,-90.1683,2.2,1111122 
LUMCON,ioos:station:LUMCON:103:1,2011-02-02T08:00:00Z,30.1889,-90.1683,1.1,1111122 
LUMCON,ioos:station:LUMCON:103:1,2011-02-02T09:00:00Z,30.1889,-90.1683,0.8,1111122 
LUMCON,ioos:station:LUMCON:103:1,2011-02-02T10:00:00Z,30.1889,-90.1683,0.8,1111122 
LUMCON,ioos:station:LUMCON:103:1,2011-02-02T11:00:00Z,30.1889,-90.1683,0.1,1111122 
LUMCON,ioos:station:LUMCON:103:1,2011-02-02T12:00:00Z,30.1889,-90.1683,-0.4,11133222 
LUMCON,ioos:station:LUMCON:103:1,2011-02-02T13:00:00Z,30.1889,-90.1683,-0.8,11133222 
LUMCON,ioos:station:LUMCON:103:1,2011-02-02T14:00:00Z,30.1889,-90.1683,-1.1,11133222 
LUMCON,ioos:station:LUMCON:103:1,2011-02-02T15:00:00Z,30.1889,-90.1683,-1.1,11133222 
LUMCON,ioos:station:LUMCON:103:1,2011-02-02T16:00:00Z,30.1889,-90.1683,-0.8,11133222 
LUMCON,ioos:station:LUMCON:103:1,2011-02-02T17:00:00Z,30.1889,-90.1683,-0.2,11133222 
LUMCON,ioos:station:LUMCON:103:1,2011-02-02T18:00:00Z,30.1889,-90.1683,0.2,1111122 
LUMCON,ioos:station:LUMCON:103:1,2011-02-02T19:00:00Z,30.1889,-90.1683,0.8,1111122 
LUMCON,ioos:station:LUMCON:103:1,2011-02-02T20:00:00Z,30.1889,-90.1683,1.3,1111122 
LUMCON,ioos:station:LUMCON:103:1,2011-02-02T21:00:00Z,30.1889,-90.1683,1.6,1111122 
LUMCON,ioos:station:LUMCON:103:1,2011-02-02T22:00:00Z,30.1889,-90.1683,1.9,1111122 
LUMCON,ioos:station:LUMCON:103:1,2011-02-02T23:00:00Z,30.1889,-90.1683,2.3,1111122 
LUMCON,ioos:station:LUMCON:103:1,2011-02-03T00:00:00Z,30.1889,-90.1683,2.4,1111122 
LUMCON,ioos:station:LUMCON:103:1,2011-02-03T01:00:00Z,30.1889,-90.1683,2.2,1111122 
LUMCON,ioos:station:LUMCON:103:1,2011-02-03T02:00:00Z,30.1889,-90.1683,2.3,1111122 
LUMCON,ioos:station:LUMCON:103:1,2011-02-03T03:00:00Z,30.1889,-90.1683,2.5,1111122 
LUMCON,ioos:station:LUMCON:103:1,2011-02-03T04:00:00Z,30.1889,-90.1683,2.4,1111122 
LUMCON,ioos:station:LUMCON:103:1,2011-02-03T05:00:00Z,30.1889,-90.1683,2.3,1111122 
LUMCON,ioos:station:LUMCON:103:1,2011-02-03T06:00:00Z,30.1889,-90.1683,2.0,1111122 
LUMCON,ioos:station:LUMCON:103:1,2011-02-03T07:00:00Z,30.1889,-90.1683,2.0,1111122 
LUMCON,ioos:station:LUMCON:103:1,2011-02-03T08:00:00Z,30.1889,-90.1683,2.0,1111122 
LUMCON,ioos:station:LUMCON:103:1,2011-02-03T09:00:00Z,30.1889,-90.1683,1.9,1111122 
LUMCON,ioos:station:LUMCON:103:1,2011-02-03T10:00:00Z,30.1889,-90.1683,2.0,1111122 
LUMCON,ioos:station:LUMCON:103:1,2011-02-03T12:00:00Z,30.1889,-90.1683,1.6,1111122 
LUMCON,ioos:station:LUMCON:103:1,2011-02-03T14:00:00Z,30.1889,-90.1683,1.6,1111122 
LUMCON,ioos:station:LUMCON:103:1,2011-02-03T15:00:00Z,30.1889,-90.1683,6.0,1111122 
LUMCON,ioos:station:LUMCON:103:1,2011-02-03T19:00:00Z,30.1889,-90.1683,2.3,1111122 
LUMCON,ioos:station:LUMCON:103:1,2011-02-03T20:00:00Z,30.1889,-90.1683,2.1,1111122 
LUMCON,ioos:station:LUMCON:103:1,2011-02-03T22:00:00Z,30.1889,-90.1683,2.1,1111122 
LUMCON,ioos:station:LUMCON:103:1,2011-02-03T23:00:00Z,30.1889,-90.1683,1.8,1111122 
LUMCON,ioos:station:LUMCON:103:1,2011-02-04T00:00:00Z,30.1889,-90.1683,1.8,1111122 
LUMCON,ioos:station:LUMCON:103:1,2011-02-04T02:00:00Z,30.1889,-90.1683,2.1,1111122 
LUMCON,ioos:station:LUMCON:103:1,2011-02-04T03:00:00Z,30.1889,-90.1683,1.9,1111122 
LUMCON,ioos:station:LUMCON:103:1,2011-02-04T06:00:00Z,30.1889,-90.1683,2.0,1111122 
LUMCON,ioos:station:LUMCON:103:1,2011-02-04T09:00:00Z,30.1889,-90.1683,2.4,1111122 
LUMCON,ioos:station:LUMCON:103:1,2011-02-04T12:00:00Z,30.1889,-90.1683,2.2,1111122 
LUMCON,ioos:station:LUMCON:103:1,2011-02-04T16:00:00Z,30.1889,-90.1683,2.3,1111122 
LUMCON,ioos:station:LUMCON:103:1,2011-02-04T19:00:00Z,30.1889,-90.1683,3.1,1111122 
LUMCON,ioos:station:LUMCON:103:1,2011-02-05T01:00:00Z,30.1889,-90.1683,3.3,1111122 
LUMCON,ioos:station:LUMCON:103:1,2011-02-05T04:00:00Z,30.1889,-90.1683,2.4,1111122 
LUMCON,ioos:station:LUMCON:103:1,2011-02-05T07:00:00Z,30.1889,-90.1683,1.0,1111122 
LUMCON,ioos:station:LUMCON:103:1,2011-02-05T09:00:00Z,30.1889,-90.1683,-0.2,11133222 
LUMCON,ioos:station:LUMCON:103:1,2011-02-05T10:00:00Z,30.1889,-90.1683,-0.6,11133222 
LUMCON,ioos:station:LUMCON:103:1,2011-02-05T14:00:00Z,30.1889,-90.1683,-0.1,11133222 
LUMCON,ioos:station:LUMCON:103:1,2011-02-05T15:00:00Z,30.1889,-90.1683,0.8,1111122 
LUMCON,ioos:station:LUMCON:103:1,2011-02-05T18:00:00Z,30.1889,-90.1683,3.9,1111122 
LUMCON,ioos:station:LUMCON:103:1,2011-02-05T22:00:00Z,30.1889,-90.1683,7.3,1111122 
LUMCON,ioos:station:LUMCON:103:1,2011-02-06T01:00:00Z,30.1889,-90.1683,6.2,1111122 
LUMCON,ioos:station:LUMCON:103:1,2011-02-06T02:00:00Z,30.1889,-90.1683,6.2,1111122 
LUMCON,ioos:station:LUMCON:103:1,2011-02-06T04:00:00Z,30.1889,-90.1683,6.1,1111122 
LUMCON,ioos:station:LUMCON:103:1,2011-02-06T05:00:00Z,30.1889,-90.1683,6.3,1111122 
LUMCON,ioos:station:LUMCON:103:1,2011-02-06T06:00:00Z,30.1889,-90.1683,6.4,1111122 
LUMCON,ioos:station:LUMCON:103:1,2011-02-06T07:00:00Z,30.1889,-90.1683,6.2,1111122 
LUMCON,ioos:station:LUMCON:103:1,2011-02-06T08:00:00Z,30.1889,-90.1683,5.9,1111122 
LUMCON,ioos:station:LUMCON:103:1,2011-02-06T09:00:00Z,30.1889,-90.1683,5.9,1111122 
LUMCON,ioos:station:LUMCON:103:1,2011-02-06T10:00:00Z,30.1889,-90.1683,6.0,1111122 
LUMCON,ioos:station:LUMCON:103:1,2011-02-06T11:00:00Z,30.1889,-90.1683,6.1,1111122 
LUMCON,ioos:station:LUMCON:103:1,2011-02-06T12:00:00Z,30.1889,-90.1683,6.3,1111122 
LUMCON,ioos:station:LUMCON:103:1,2011-02-06T13:00:00Z,30.1889,-90.1683,6.2,1111122 
LUMCON,ioos:station:LUMCON:103:1,2011-02-06T14:00:00Z,30.1889,-90.1683,6.8,1111122 
LUMCON,ioos:station:LUMCON:103:1,2011-02-06T18:00:00Z,30.1889,-90.1683,9.9,1111122 
LUMCON,ioos:station:LUMCON:103:1,2011-02-07T18:00:00Z,30.1889,-90.1683,8.7,1111122 
LUMCON,ioos:station:LUMCON:103:1,2011-02-07T19:00:00Z,30.1889,-90.1683,8.1,1111122 
LUMCON,ioos:station:LUMCON:103:1,2011-02-07T20:00:00Z,30.1889,-90.1683,8.5,1111122 
LUMCON,ioos:station:LUMCON:103:1,2011-02-07T23:00:00Z,30.1889,-90.1683,7.7,1111122 
LUMCON,ioos:station:LUMCON:103:1,2011-02-08T22:00:00Z,30.1889,-90.1683,7.7,1111122 
LUMCON,ioos:station:LUMCON:103:1,2011-02-09T19:00:00Z,30.1889,-90.1683,9.6,1111122 
LUMCON,ioos:station:LUMCON:103:1,2011-02-09T21:00:00Z,30.1889,-90.1683,10.6,1111122 
LUMCON,ioos:station:LUMCON:103:1,2011-02-10T01:00:00Z,30.1889,-90.1683,8.3,1111122 
LUMCON,ioos:station:LUMCON:103:1,2011-02-10T08:00:00Z,30.1889,-90.1683,3.6,1111122 
LUMCON,ioos:station:LUMCON:103:1,2011-02-10T09:00:00Z,30.1889,-90.1683,2.4,1111122 
LUMCON,ioos:station:LUMCON:103:1,2011-02-10T10:00:00Z,30.1889,-90.1683,2.1,1111122 
LUMCON,ioos:station:LUMCON:103:1,2011-02-10T13:00:00Z,30.1889,-90.1683,1.8,1111122 
LUMCON,ioos:station:LUMCON:103:1,2011-02-10T14:00:00Z,30.1889,-90.1683,1.7,1111122 
LUMCON,ioos:station:LUMCON:103:1,2011-02-10T18:00:00Z,30.1889,-90.1683,2.1,1111122 
LUMCON,ioos:station:LUMCON:103:1,2011-02-10T21:00:00Z,30.1889,-90.1683,2.9,1111122 
LUMCON,ioos:station:LUMCON:103:1,2011-02-11T00:00:00Z,30.1889,-90.1683,2.4,1111122 
LUMCON,ioos:station:LUMCON:103:1,2011-02-11T01:00:00Z,30.1889,-90.1683,2.0,1111122 
LUMCON,ioos:station:LUMCON:103:1,2011-02-11T02:00:00Z,30.1889,-90.1683,1.8,1111122 
LUMCON,ioos:station:LUMCON:103:1,2011-02-11T07:00:00Z,30.1889,-90.1683,-0.3,11133222 
LUMCON,ioos:station:LUMCON:103:1,2011-02-11T10:00:00Z,30.1889,-90.1683,-1.0,11133222 
LUMCON,ioos:station:LUMCON:103:1,2011-02-11T13:00:00Z,30.1889,-90.1683,-1.8,11133222 
LUMCON,ioos:station:LUMCON:103:1,2011-02-11T16:00:00Z,30.1889,-90.1683,0.3,1111122 
LUMCON,ioos:station:LUMCON:103:1,2011-02-11T17:00:00Z,30.1889,-90.1683,1.6,1111122 
LUMCON,ioos:station:LUMCON:103:1,2011-02-11T18:00:00Z,30.1889,-90.1683,3.0,1111122 
LUMCON,ioos:station:LUMCON:103:1,2011-02-11T21:00:00Z,30.1889,-90.1683,7.4,1111122 
LUMCON,ioos:station:LUMCON:103:1,2011-02-11T22:00:00Z,30.1889,-90.1683,8.2,1111122 
LUMCON,ioos:station:LUMCON:103:1,2011-02-12T00:00:00Z,30.1889,-90.1683,7.9,1111122 
LUMCON,ioos:station:LUMCON:103:1,2011-02-12T01:00:00Z,30.1889,-90.1683,7.3,1111122 
LUMCON,ioos:station:LUMCON:103:1,2011-02-12T02:00:00Z,30.1889,-90.1683,6.6,1111122 
LUMCON,ioos:station:LUMCON:103:1,2011-02-12T03:00:00Z,30.1889,-90.1683,5.9,1111122 
LUMCON,ioos:station:LUMCON:103:1,2011-02-12T05:00:00Z,30.1889,-90.1683,4.9,1111122 
LUMCON,ioos:station:LUMCON:103:1,2011-02-12T07:00:00Z,30.1889,-90.1683,4.2,1111122 
LUMCON,ioos:station:LUMCON:103:1,2011-02-12T09:00:00Z,30.1889,-90.1683,3.5,1111122 
LUMCON,ioos:station:LUMCON:103:1,2011-02-12T13:00:00Z,30.1889,-90.1683,2.2,1111122 
LUMCON,ioos:station:LUMCON:103:1,2011-02-12T14:00:00Z,30.1889,-90.1683,3.9,1111122 
LUMCON,ioos:station:LUMCON:103:1,2011-02-12T16:00:00Z,30.1889,-90.1683,7.2,1111122 
LUMCON,ioos:station:LUMCON:103:1,2011-02-12T18:00:00Z,30.1889,-90.1683,9.2,1111122 
LUMCON,ioos:station:LUMCON:103:1,2011-02-12T19:00:00Z,30.1889,-90.1683,9.3,1111122 
LUMCON,ioos:station:LUMCON:103:1,2011-02-12T20:00:00Z,30.1889,-90.1683,9.7,11111222 
LUMCON,ioos:station:LUMCON:103:1,2011-02-12T21:00:00Z,30.1889,-90.1683,10.1,11111222 
LUMCON,ioos:station:LUMCON:103:1,2011-02-12T22:00:00Z,30.1889,-90.1683,10.3,11111222 
LUMCON,ioos:station:LUMCON:103:1,2011-02-12T23:00:00Z,30.1889,-90.1683,10.2,11111222 
LUMCON,ioos:station:LUMCON:103:1,2011-02-13T00:00:00Z,30.1889,-90.1683,9.4,11111222 
LUMCON,ioos:station:LUMCON:103:1,2011-02-13T01:00:00Z,30.1889,-90.1683,8.7,11111222 
LUMCON,ioos:station:LUMCON:103:1,2011-02-13T02:00:00Z,30.1889,-90.1683,8.7,11111222 
LUMCON,ioos:station:LUMCON:103:1,2011-02-13T03:00:00Z,30.1889,-90.1683,8.3,11111222 
LUMCON,ioos:station:LUMCON:103:1,2011-02-13T04:00:00Z,30.1889,-90.1683,8.1,11111222 
LUMCON,ioos:station:LUMCON:103:1,2011-02-13T05:00:00Z,30.1889,-90.1683,7.7,11111222 
LUMCON,ioos:station:LUMCON:103:1,2011-02-13T06:00:00Z,30.1889,-90.1683,7.0,11111222 
LUMCON,ioos:station:LUMCON:103:1,2011-02-13T07:00:00Z,30.1889,-90.1683,6.6,11111222 
LUMCON,ioos:station:LUMCON:103:1,2011-02-13T08:00:00Z,30.1889,-90.1683,6.0,11111222 
LUMCON,ioos:station:LUMCON:103:1,2011-02-13T09:00:00Z,30.1889,-90.1683,6.2,1111122 
LUMCON,ioos:station:LUMCON:103:1,2011-02-13T10:00:00Z,30.1889,-90.1683,5.6,11111222 
LUMCON,ioos:station:LUMCON:103:1,2011-02-13T11:00:00Z,30.1889,-90.1683,5.4,11111222 
LUMCON,ioos:station:LUMCON:103:1,2011-02-13T12:00:00Z,30.1889,-90.1683,5.3,11111222 
LUMCON,ioos:station:LUMCON:103:1,2011-02-13T13:00:00Z,30.1889,-90.1683,5.3,1111122 
LUMCON,ioos:station:LUMCON:103:1,2011-02-13T14:00:00Z,30.1889,-90.1683,7.1,1111122 
LUMCON,ioos:station:LUMCON:103:1,2011-02-13T15:00:00Z,30.1889,-90.1683,9.8,1111122 
LUMCON,ioos:station:LUMCON:103:1,2011-02-13T16:00:00Z,30.1889,-90.1683,9.8,1111122 
LUMCON,ioos:station:LUMCON:103:1,2011-02-13T17:00:00Z,30.1889,-90.1683,10.2,1111122 
LUMCON,ioos:station:LUMCON:103:1,2011-02-13T18:00:00Z,30.1889,-90.1683,10.6,1111122 
LUMCON,ioos:station:LUMCON:103:1,2011-02-13T19:00:00Z,30.1889,-90.1683,11.5,1111122 
LUMCON,ioos:station:LUMCON:103:1,2011-02-13T20:00:00Z,30.1889,-90.1683,12.2,1111122 
LUMCON,ioos:station:LUMCON:103:1,2011-02-13T21:00:00Z,30.1889,-90.1683,12.6,1111122 
LUMCON,ioos:station:LUMCON:103:1,2011-02-13T22:00:00Z,30.1889,-90.1683,13.1,1111122 
LUMCON,ioos:station:LUMCON:103:1,2011-02-13T23:00:00Z,30.1889,-90.1683,13.3,1111122 
LUMCON,ioos:station:LUMCON:103:1,2011-02-14T00:00:00Z,30.1889,-90.1683,12.5,1111122 
LUMCON,ioos:station:LUMCON:103:1,2011-02-14T01:00:00Z,30.1889,-90.1683,11.7,1111122 
LUMCON,ioos:station:LUMCON:103:1,2011-02-14T02:00:00Z,30.1889,-90.1683,11.2,1111122 
LUMCON,ioos:station:LUMCON:103:1,2011-02-14T03:00:00Z,30.1889,-90.1683,10.9,1111122 
LUMCON,ioos:station:LUMCON:103:1,2011-02-14T04:00:00Z,30.1889,-90.1683,10.6,1111122 
LUMCON,ioos:station:LUMCON:103:1,2011-02-14T05:00:00Z,30.1889,-90.1683,10.3,1111122 
LUMCON,ioos:station:LUMCON:103:1,2011-02-14T06:00:00Z,30.1889,-90.1683,10.3,1111122 
LUMCON,ioos:station:LUMCON:103:1,2011-02-14T07:00:00Z,30.1889,-90.1683,10.2,1111122 
LUMCON,ioos:station:LUMCON:103:1,2011-02-14T08:00:00Z,30.1889,-90.1683,10.2,1111122 
LUMCON,ioos:station:LUMCON:103:1,2011-02-14T09:00:00Z,30.1889,-90.1683,9.7,1111122 
LUMCON,ioos:station:LUMCON:103:1,2011-02-14T10:00:00Z,30.1889,-90.1683,9.3,1111122 
LUMCON,ioos:station:LUMCON:103:1,2011-02-14T11:00:00Z,30.1889,-90.1683,9.6,1111122 
LUMCON,ioos:station:LUMCON:103:1,2011-02-14T12:00:00Z,30.1889,-90.1683,9.6,1111122 
LUMCON,ioos:station:LUMCON:103:1,2011-02-14T13:00:00Z,30.1889,-90.1683,9.7,1111122 
LUMCON,ioos:station:LUMCON:103:1,2011-02-14T14:00:00Z,30.1889,-90.1683,11.5,1111122 
LUMCON,ioos:station:LUMCON:103:1,2011-02-14T15:00:00Z,30.1889,-90.1683,12.3,1111122 
LUMCON,ioos:station:LUMCON:103:1,2011-02-14T16:00:00Z,30.1889,-90.1683,12.2,1111122 
LUMCON,ioos:station:LUMCON:103:1,2011-02-14T17:00:00Z,30.1889,-90.1683,12.9,1111122 
LUMCON,ioos:station:LUMCON:103:1,2011-02-14T18:00:00Z,30.1889,-90.1683,13.6,1111122 
LUMCON,ioos:station:LUMCON:103:1,2011-02-14T19:00:00Z,30.1889,-90.1683,14.3,1111122 
LUMCON,ioos:station:LUMCON:103:1,2011-02-14T20:00:00Z,30.1889,-90.1683,14.9,1111122 
LUMCON,ioos:station:LUMCON:103:1,2011-02-14T21:00:00Z,30.1889,-90.1683,15.3,1111122 
LUMCON,ioos:station:LUMCON:103:1,2011-02-14T22:00:00Z,30.1889,-90.1683,15.4,1111122 
LUMCON,ioos:station:LUMCON:103:1,2011-02-14T23:00:00Z,30.1889,-90.1683,15.1,1111122 
LUMCON,ioos:station:LUMCON:103:1,2011-02-15T00:00:00Z,30.1889,-90.1683,14.0,1111122 
LUMCON,ioos:station:LUMCON:103:1,2011-02-15T01:00:00Z,30.1889,-90.1683,14.4,1111122 
LUMCON,ioos:station:LUMCON:103:1,2011-02-15T02:00:00Z,30.1889,-90.1683,13.2,1111122 
LUMCON,ioos:station:LUMCON:103:1,2011-02-15T03:00:00Z,30.1889,-90.1683,12.7,1111122 
LUMCON,ioos:station:LUMCON:103:1,2011-02-15T04:00:00Z,30.1889,-90.1683,12.5,1111122 
LUMCON,ioos:station:LUMCON:103:1,2011-02-15T05:00:00Z,30.1889,-90.1683,12.3,1111122 
LUMCON,ioos:station:LUMCON:103:1,2011-02-15T06:00:00Z,30.1889,-90.1683,12.0,1111122 
LUMCON,ioos:station:LUMCON:103:1,2011-02-15T07:00:00Z,30.1889,-90.1683,11.9,1111122 
LUMCON,ioos:station:LUMCON:103:1,2011-02-15T08:00:00Z,30.1889,-90.1683,11.8,1111122 
LUMCON,ioos:station:LUMCON:103:1,2011-02-15T09:00:00Z,30.1889,-90.1683,11.7,1111122 
LUMCON,ioos:station:LUMCON:103:1,2011-02-15T10:00:00Z,30.1889,-90.1683,11.4,1111122 
LUMCON,ioos:station:LUMCON:103:1,2011-02-15T11:00:00Z,30.1889,-90.1683,11.1,1111122 
LUMCON,ioos:station:LUMCON:103:1,2011-02-15T12:00:00Z,30.1889,-90.1683,10.8,1111122 
LUMCON,ioos:station:LUMCON:103:1,2011-02-15T13:00:00Z,30.1889,-90.1683,10.8,1111122 
LUMCON,ioos:station:LUMCON:103:1,2011-02-15T14:00:00Z,30.1889,-90.1683,12.4,1111122 
LUMCON,ioos:station:LUMCON:103:1,2011-02-15T15:00:00Z,30.1889,-90.1683,12.2,1111122 
LUMCON,ioos:station:LUMCON:103:1,2011-02-15T16:00:00Z,30.1889,-90.1683,12.9,1111122 
LUMCON,ioos:station:LUMCON:103:1,2011-02-15T17:00:00Z,30.1889,-90.1683,13.6,1111122 
LUMCON,ioos:station:LUMCON:103:1,2011-02-15T18:00:00Z,30.1889,-90.1683,14.0,1111122 
LUMCON,ioos:station:LUMCON:103:1,2011-02-15T19:00:00Z,30.1889,-90.1683,14.5,1111122 
LUMCON,ioos:station:LUMCON:103:1,2011-02-15T20:00:00Z,30.1889,-90.1683,15.9,1111122 
LUMCON,ioos:station:LUMCON:103:1,2011-02-15T21:00:00Z,30.1889,-90.1683,15.7,1111122 
LUMCON,ioos:station:LUMCON:103:1,2011-02-15T22:00:00Z,30.1889,-90.1683,15.7,1111122 
LUMCON,ioos:station:LUMCON:103:1,2011-02-15T23:00:00Z,30.1889,-90.1683,15.4,1111122 
LUMCON,ioos:station:LUMCON:103:1,2011-02-16T00:00:00Z,30.1889,-90.1683,14.3,1111122 
LUMCON,ioos:station:LUMCON:103:1,2011-02-16T01:00:00Z,30.1889,-90.1683,13.9,1111122 
LUMCON,ioos:station:LUMCON:103:1,2011-02-16T02:00:00Z,30.1889,-90.1683,13.2,1111122 
LUMCON,ioos:station:LUMCON:103:1,2011-02-16T03:00:00Z,30.1889,-90.1683,13.1,1111122 
LUMCON,ioos:station:LUMCON:103:1,2011-02-16T04:00:00Z,30.1889,-90.1683,13.2,1111122 
LUMCON,ioos:station:LUMCON:103:1,2011-02-16T05:00:00Z,30.1889,-90.1683,12.7,1111122 
LUMCON,ioos:station:LUMCON:103:1,2011-02-16T06:00:00Z,30.1889,-90.1683,12.6,1111122 
LUMCON,ioos:station:LUMCON:103:1,2011-02-16T07:00:00Z,30.1889,-90.1683,12.2,1111122 
LUMCON,ioos:station:LUMCON:103:1,2011-02-16T08:00:00Z,30.1889,-90.1683,12.3,1111122 
LUMCON,ioos:station:LUMCON:103:1,2011-02-16T09:00:00Z,30.1889,-90.1683,12.2,1111122 
LUMCON,ioos:station:LUMCON:103:1,2011-02-16T10:00:00Z,30.1889,-90.1683,11.7,1111122 
LUMCON,ioos:station:LUMCON:103:1,2011-02-16T11:00:00Z,30.1889,-90.1683,11.9,1111122 
LUMCON,ioos:station:LUMCON:103:1,2011-02-16T12:00:00Z,30.1889,-90.1683,11.5,1111122 
LUMCON,ioos:station:LUMCON:103:1,2011-02-16T13:00:00Z,30.1889,-90.1683,11.8,1111122 
LUMCON,ioos:station:LUMCON:103:1,2011-02-16T14:00:00Z,30.1889,-90.1683,12.1,1111122 
LUMCON,ioos:station:LUMCON:103:1,2011-02-16T15:00:00Z,30.1889,-90.1683,12.6,1111122 
LUMCON,ioos:station:LUMCON:103:1,2011-02-16T16:00:00Z,30.1889,-90.1683,13.3,1111122 
LUMCON,ioos:station:LUMCON:103:1,2011-02-16T17:00:00Z,30.1889,-90.1683,14.5,1111122 
LUMCON,ioos:station:LUMCON:103:1,2011-02-16T18:00:00Z,30.1889,-90.1683,15.1,1111122 
LUMCON,ioos:station:LUMCON:103:1,2011-02-16T19:00:00Z,30.1889,-90.1683,15.4,1111122 
LUMCON,ioos:station:LUMCON:103:1,2011-02-16T20:00:00Z,30.1889,-90.1683,15.7,1111122 
LUMCON,ioos:station:LUMCON:103:1,2011-02-16T21:00:00Z,30.1889,-90.1683,15.8,1111122 
LUMCON,ioos:station:LUMCON:103:1,2011-02-16T22:00:00Z,30.1889,-90.1683,15.4,1111122 
LUMCON,ioos:station:LUMCON:103:1,2011-02-16T23:00:00Z,30.1889,-90.1683,14.9,1111122 
LUMCON,ioos:station:LUMCON:103:1,2011-02-17T00:00:00Z,30.1889,-90.1683,14.5,1111122 
LUMCON,ioos:station:LUMCON:103:1,2011-02-17T01:00:00Z,30.1889,-90.1683,14.0,1111122 
LUMCON,ioos:station:LUMCON:103:1,2011-02-17T02:00:00Z,30.1889,-90.1683,13.7,1111122 
LUMCON,ioos:station:LUMCON:103:1,2011-02-17T05:00:00Z,30.1889,-90.1683,13.1,1111122 
LUMCON,ioos:station:LUMCON:103:1,2011-02-17T06:00:00Z,30.1889,-90.1683,13.0,1111122 
LUMCON,ioos:station:LUMCON:103:1,2011-02-17T07:00:00Z,30.1889,-90.1683,13.0,1111122 
LUMCON,ioos:station:LUMCON:103:1,2011-02-17T08:00:00Z,30.1889,-90.1683,13.1,1111122 
LUMCON,ioos:station:LUMCON:103:1,2011-02-17T09:00:00Z,30.1889,-90.1683,12.8,1111122 
LUMCON,ioos:station:LUMCON:103:1,2011-02-17T10:00:00Z,30.1889,-90.1683,12.6,1111122 
LUMCON,ioos:station:LUMCON:103:1,2011-02-17T11:00:00Z,30.1889,-90.1683,12.5,1111122 
LUMCON,ioos:station:LUMCON:103:1,2011-02-17T12:00:00Z,30.1889,-90.1683,12.5,1111122 
LUMCON,ioos:station:LUMCON:103:1,2011-02-17T13:00:00Z,30.1889,-90.1683,12.3,1111122 
LUMCON,ioos:station:LUMCON:103:1,2011-02-17T14:00:00Z,30.1889,-90.1683,13.6,1111122 
LUMCON,ioos:station:LUMCON:103:1,2011-02-17T15:00:00Z,30.1889,-90.1683,14.0,11111222 
LUMCON,ioos:station:LUMCON:103:1,2011-02-17T16:00:00Z,30.1889,-90.1683,14.5,11111222 
LUMCON,ioos:station:LUMCON:103:1,2011-02-17T17:00:00Z,30.1889,-90.1683,15.2,11111222 
LUMCON,ioos:station:LUMCON:103:1,2011-02-17T18:00:00Z,30.1889,-90.1683,15.4,1111122 
LUMCON,ioos:station:LUMCON:103:1,2011-02-17T19:00:00Z,30.1889,-90.1683,16.2,1111122 
LUMCON,ioos:station:LUMCON:103:1,2011-02-17T20:00:00Z,30.1889,-90.1683,16.3,1111122 
LUMCON,ioos:station:LUMCON:103:1,2011-02-17T21:00:00Z,30.1889,-90.1683,16.7,1111122 
LUMCON,ioos:station:LUMCON:103:1,2011-02-17T22:00:00Z,30.1889,-90.1683,17.0,1111122 
LUMCON,ioos:station:LUMCON:103:1,2011-02-17T23:00:00Z,30.1889,-90.1683,16.9,1111122 
LUMCON,ioos:station:LUMCON:103:1,2011-02-18T00:00:00Z,30.1889,-90.1683,16.7,1111122 
LUMCON,ioos:station:LUMCON:103:1,2011-02-18T01:00:00Z,30.1889,-90.1683,16.0,1111122 
LUMCON,ioos:station:LUMCON:103:1,2011-02-18T02:00:00Z,30.1889,-90.1683,15.7,1111122 
LUMCON,ioos:station:LUMCON:103:1,2011-02-18T03:00:00Z,30.1889,-90.1683,15.6,1111122 
LUMCON,ioos:station:LUMCON:103:1,2011-02-18T04:00:00Z,30.1889,-90.1683,15.1,1111122 
LUMCON,ioos:station:LUMCON:103:1,2011-02-18T05:00:00Z,30.1889,-90.1683,14.5,1111122 
LUMCON,ioos:station:LUMCON:103:1,2011-02-18T06:00:00Z,30.1889,-90.1683,14.5,1111122 
LUMCON,ioos:station:LUMCON:103:1,2011-02-18T07:00:00Z,30.1889,-90.1683,14.3,1111122 
LUMCON,ioos:station:LUMCON:103:1,2011-02-18T14:00:00Z,30.1889,-90.1683,13.6,1111122 
LUMCON,ioos:station:LUMCON:103:1,2011-02-18T15:00:00Z,30.1889,-90.1683,13.9,1111122 
LUMCON,ioos:station:LUMCON:103:1,2011-02-18T16:00:00Z,30.1889,-90.1683,15.0,1111122 
LUMCON,ioos:station:LUMCON:103:1,2011-02-18T18:00:00Z,30.1889,-90.1683,16.1,1111122 
LUMCON,ioos:station:LUMCON:103:1,2011-02-18T19:00:00Z,30.1889,-90.1683,16.5,1111122 
LUMCON,ioos:station:LUMCON:103:1,2011-02-19T02:00:00Z,30.1889,-90.1683,16.6,1111122 
LUMCON,ioos:station:LUMCON:103:1,2011-02-19T03:00:00Z,30.1889,-90.1683,16.2,1111122 
LUMCON,ioos:station:LUMCON:103:1,2011-02-19T04:00:00Z,30.1889,-90.1683,15.9,1111122 
LUMCON,ioos:station:LUMCON:103:1,2011-02-19T05:00:00Z,30.1889,-90.1683,15.5,1111122 
LUMCON,ioos:station:LUMCON:103:1,2011-02-19T08:00:00Z,30.1889,-90.1683,13.8,1111122 
LUMCON,ioos:station:LUMCON:103:1,2011-02-19T12:00:00Z,30.1889,-90.1683,13.2,1111122 
LUMCON,ioos:station:LUMCON:103:1,2011-02-19T13:00:00Z,30.1889,-90.1683,13.3,1111122 
LUMCON,ioos:station:LUMCON:103:1,2011-02-19T18:00:00Z,30.1889,-90.1683,15.4,1111122 
LUMCON,ioos:station:LUMCON:103:1,2011-02-19T19:00:00Z,30.1889,-90.1683,16.5,1111122 
LUMCON,ioos:station:LUMCON:103:1,2011-02-19T20:00:00Z,30.1889,-90.1683,17.1,11111222 
LUMCON,ioos:station:LUMCON:103:1,2011-02-19T21:00:00Z,30.1889,-90.1683,17.3,11111222 
LUMCON,ioos:station:LUMCON:103:1,2011-02-19T22:00:00Z,30.1889,-90.1683,17.4,11111222 
LUMCON,ioos:station:LUMCON:103:1,2011-02-19T23:00:00Z,30.1889,-90.1683,17.7,11111222 
LUMCON,ioos:station:LUMCON:103:1,2011-02-20T00:00:00Z,30.1889,-90.1683,16.3,1111122 
LUMCON,ioos:station:LUMCON:103:1,2011-02-20T01:00:00Z,30.1889,-90.1683,16.6,1111122 
LUMCON,ioos:station:LUMCON:103:1,2011-02-20T02:00:00Z,30.1889,-90.1683,15.8,1111122 
LUMCON,ioos:station:LUMCON:103:1,2011-02-20T03:00:00Z,30.1889,-90.1683,16.1,1111122 
LUMCON,ioos:station:LUMCON:103:1,2011-02-20T04:00:00Z,30.1889,-90.1683,15.8,1111122 